,,Stat6,,Stat2,,Stat8,,Stat9,,Stat10,,Wind1,,Wind1,
time,status,PA1M_AVG,status,PR1M_SUM,status,RH1M_AVG,status,SR1M_AVG,status,TA1M_AVG,status,W1dAve1m,status,W1sAve1m,
2005-12-16, 00:00:01,VALID,917.453,VALID,0,VALID,100,VALID,0.0849042,VALID,19.6102,VALID,351,VALID,0.302344,
2005-12-16, 00:01:01,VALID,917.476,VALID,0,VALID,100,VALID,0.0849042,VALID,19.6067,VALID,7,VALID,0.00990854,
2005-12-16, 00:02:01,VALID,917.469,VALID,0,VALID,100,VALID,0.0679233,VALID,19.6069,VALID,333,VALID,0.311967,
2005-12-16, 00:03:00,VALID,917.471,VALID,0,VALID,100,VALID,0.0679233,VALID,19.6042,VALID,265,VALID,0.156064,
2005-12-16, 00:04:01,VALID,917.452,VALID,0,VALID,100,VALID,0.0849042,VALID,19.6137,VALID,352,VALID,0.629001,
2005-12-16, 00:05:00,VALID,917.418,VALID,0,VALID,100,VALID,0.0849042,VALID,19.6231,VALID,20,VALID,1.33761,
2005-12-16, 00:06:00,VALID,917.408,VALID,0,VALID,100,VALID,0.0849042,VALID,19.6002,VALID,7,VALID,1.52344,
2005-12-16, 00:07:01,VALID,917.391,VALID,0,VALID,100,VALID,0.101885,VALID,19.5711,VALID,357,VALID,0.81994,
2005-12-16, 00:08:00,VALID,917.389,VALID,0,VALID,100,VALID,0.0849042,VALID,19.561,VALID,8,VALID,0.207889,
2005-12-16, 00:09:01,VALID,917.391,VALID,0,VALID,100,VALID,0.101885,VALID,19.5644,VALID,8,VALID,0.216388,
2005-12-16, 00:10:00,VALID,917.389,VALID,0,VALID,100,VALID,0.101885,VALID,19.5682,VALID,8,VALID,0.309896,
2005-12-16, 00:11:01,VALID,917.374,VALID,0,VALID,100,VALID,0.101885,VALID,19.545,VALID,8,VALID,0.170277,
2005-12-16, 00:12:00,VALID,917.369,VALID,0,VALID,100,VALID,0.101885,VALID,19.5356,VALID,8,VALID,0.0228659,
2005-12-16, 00:13:00,VALID,917.368,VALID,0,VALID,100,VALID,0.118866,VALID,19.5386,VALID,8,VALID,0.0982921,
2005-12-16, 00:14:00,VALID,917.353,VALID,0,VALID,100,VALID,0.101885,VALID,19.5714,VALID,7,VALID,0.429324,
2005-12-16, 00:15:01,VALID,917.328,VALID,0,VALID,100,VALID,0.101885,VALID,19.555,VALID,9,VALID,0.461682,
2005-12-16, 00:16:00,VALID,917.32,VALID,0,VALID,100,VALID,0.101885,VALID,19.5517,VALID,25,VALID,0.573583,
2005-12-16, 00:17:00,VALID,917.316,VALID,0,VALID,100,VALID,0.0169808,VALID,19.5729,VALID,25,VALID,0.244913,
2005-12-16, 00:18:00,VALID,917.329,VALID,0,VALID,100,VALID,0,VALID,19.5691,VALID,25,VALID,0.0649858,
2005-12-16, 00:19:00,VALID,917.321,VALID,0,VALID,100,VALID,0,VALID,19.553,VALID,25,VALID,0.195313,
2005-12-16, 00:20:00,VALID,917.297,VALID,0,VALID,100,VALID,0.0509425,VALID,19.5433,VALID,25,VALID,0.103198,
2005-12-16, 00:21:00,VALID,917.277,VALID,0,VALID,100,VALID,0.0679233,VALID,19.5532,VALID,25,VALID,0.254906,
2005-12-16, 00:22:01,VALID,917.27,VALID,0.2,VALID,100,VALID,0,VALID,19.556,VALID,25,VALID,0.0171494,
2005-12-16, 00:23:00,VALID,917.269,VALID,0,VALID,100,VALID,0.0169808,VALID,19.5535,VALID,25,VALID,0,
2005-12-16, 00:24:01,VALID,917.236,VALID,0,VALID,100,VALID,0.0169808,VALID,19.5366,VALID,25,VALID,0.22202,
2005-12-16, 00:25:01,VALID,917.232,VALID,0,VALID,100,VALID,0,VALID,19.5331,VALID,26,VALID,0.835243,
2005-12-16, 00:26:00,VALID,917.224,VALID,0,VALID,100,VALID,0.0169808,VALID,19.5525,VALID,41,VALID,0.314024,
2005-12-16, 00:27:01,VALID,917.208,VALID,0,VALID,100,VALID,0,VALID,19.5726,VALID,40,VALID,0.136905,
2005-12-16, 00:28:01,VALID,917.192,VALID,0,VALID,100,VALID,-0.0169808,VALID,19.5632,VALID,330,VALID,0.261719,
2005-12-16, 00:29:00,VALID,917.19,VALID,0,VALID,100,VALID,0,VALID,19.5373,VALID,249,VALID,0.223899,
2005-12-16, 00:30:00,VALID,917.19,VALID,0,VALID,100,VALID,0,VALID,19.5018,VALID,280,VALID,0.893003,
2005-12-16, 00:31:00,VALID,917.202,VALID,0,VALID,100,VALID,-0.0169808,VALID,19.5047,VALID,262,VALID,0.26726,
2005-12-16, 00:32:00,VALID,917.195,VALID,0,VALID,100,VALID,0,VALID,19.5147,VALID,328,VALID,0.61756,
2005-12-16, 00:33:00,VALID,917.176,VALID,0,VALID,100,VALID,0,VALID,19.5276,VALID,15,VALID,0.93285,
2005-12-16, 00:34:01,VALID,917.179,VALID,0,VALID,100,VALID,0,VALID,19.5251,VALID,20,VALID,1.07522,
2005-12-16, 00:35:00,VALID,917.182,VALID,0,VALID,100,VALID,-0.0679233,VALID,19.5321,VALID,6,VALID,0.942708,
2005-12-16, 00:36:00,VALID,917.183,VALID,0,VALID,100,VALID,-0.0679233,VALID,19.5052,VALID,338,VALID,0.831845,
2005-12-16, 00:37:00,VALID,917.164,VALID,0,VALID,100,VALID,-0.0169808,VALID,19.4963,VALID,2,VALID,0.555078,
2005-12-16, 00:38:00,VALID,917.179,VALID,0,VALID,100,VALID,-0.101885,VALID,19.4963,VALID,3,VALID,0.646439,
2005-12-16, 00:39:00,VALID,917.189,VALID,0,VALID,100,VALID,-0.0509425,VALID,19.493,VALID,326,VALID,0.896875,
2005-12-16, 00:40:00,VALID,917.181,VALID,0,VALID,100,VALID,-0.0849042,VALID,19.4799,VALID,342,VALID,0.785342,
2005-12-16, 00:41:01,VALID,917.184,VALID,0,VALID,100,VALID,-0.0849042,VALID,19.4799,VALID,7,VALID,0.455529,
2005-12-16, 00:42:00,VALID,917.159,VALID,0,VALID,100,VALID,-0.0169808,VALID,19.5062,VALID,20,VALID,0.52611,
2005-12-16, 00:43:00,VALID,917.149,VALID,0,VALID,100,VALID,-0.0509425,VALID,19.506,VALID,29,VALID,0.244284,
2005-12-16, 00:44:00,VALID,917.134,VALID,0,VALID,100,VALID,-0.0169808,VALID,19.499,VALID,3,VALID,0.25327,
2005-12-16, 00:45:01,VALID,917.116,VALID,0,VALID,100,VALID,-0.0509425,VALID,19.4923,VALID,16,VALID,0.891959,
2005-12-16, 00:46:01,VALID,917.105,VALID,0,VALID,100,VALID,-0.0509425,VALID,19.4824,VALID,348,VALID,0.283984,
2005-12-16, 00:47:01,VALID,917.07,VALID,0,VALID,100,VALID,-0.0509425,VALID,19.4828,VALID,357,VALID,0.585938,
2005-12-16, 00:48:00,VALID,917.045,VALID,0,VALID,100,VALID,-0.0679233,VALID,19.4866,VALID,9,VALID,0.697864,
2005-12-16, 00:49:00,VALID,917.019,VALID,0,VALID,100,VALID,0.0679233,VALID,19.4712,VALID,19,VALID,0.812832,
2005-12-16, 00:50:01,VALID,917.008,VALID,0,VALID,100,VALID,0.0339617,VALID,19.4853,VALID,19,VALID,0.719815,
2005-12-16, 00:51:01,VALID,916.996,VALID,0,VALID,100,VALID,0.0679233,VALID,19.4886,VALID,20,VALID,0.697222,
2005-12-16, 00:52:00,VALID,916.978,VALID,0,VALID,100,VALID,0.0509425,VALID,19.4849,VALID,20,VALID,0.245584,
2005-12-16, 00:53:00,VALID,916.966,VALID,0,VALID,100,VALID,0.0169808,VALID,19.4784,VALID,20,VALID,0.705171,
2005-12-16, 00:54:01,VALID,916.926,VALID,0,VALID,100,VALID,0.0339617,VALID,19.4784,VALID,23,VALID,0.762091,
2005-12-16, 00:55:01,VALID,916.91,VALID,0,VALID,100,VALID,0.0169808,VALID,19.4821,VALID,21,VALID,1.21354,
2005-12-16, 00:56:01,VALID,916.896,VALID,0,VALID,100,VALID,0.0339617,VALID,19.4458,VALID,4,VALID,1.14695,
2005-12-16, 00:57:01,VALID,916.892,VALID,0,VALID,100,VALID,0.0509425,VALID,19.4426,VALID,355,VALID,0.592361,
2005-12-16, 00:58:01,VALID,916.884,VALID,0,VALID,100,VALID,0.0169808,VALID,19.4396,VALID,8,VALID,0.790234,
2005-12-16, 00:59:00,VALID,916.866,VALID,0,VALID,100,VALID,0,VALID,19.4336,VALID,17,VALID,0.980469,
2005-12-16, 01:00:00,VALID,916.877,VALID,0,VALID,100,VALID,0.0169808,VALID,19.4299,VALID,5,VALID,0.69186,
2005-12-16, 01:01:00,VALID,916.858,VALID,0,VALID,100,VALID,0.0169808,VALID,19.4135,VALID,352,VALID,0.777435,
2005-12-16, 01:02:01,VALID,916.843,VALID,0,VALID,100,VALID,0.0339617,VALID,19.4073,VALID,19,VALID,0.672447,
2005-12-16, 01:03:00,VALID,916.831,VALID,0,VALID,100,VALID,0.0679233,VALID,19.4137,VALID,11,VALID,0.987233,
2005-12-16, 01:04:01,VALID,916.831,VALID,0,VALID,100,VALID,0.0339617,VALID,19.42,VALID,3,VALID,0.532203,
2005-12-16, 01:05:01,VALID,916.813,VALID,0,VALID,100,VALID,0.0169808,VALID,19.4207,VALID,8,VALID,0.418968,
2005-12-16, 01:06:01,VALID,916.795,VALID,0,VALID,100,VALID,0.0679233,VALID,19.4204,VALID,15,VALID,0.782051,
2005-12-16, 01:07:01,VALID,916.784,VALID,0,VALID,100,VALID,0.0679233,VALID,19.4195,VALID,23,VALID,0.963281,
2005-12-16, 01:08:01,VALID,916.766,VALID,0,VALID,100,VALID,0.0679233,VALID,19.4294,VALID,25,VALID,0.689931,
2005-12-16, 01:09:00,VALID,916.754,VALID,0,VALID,100,VALID,0,VALID,19.4331,VALID,25,VALID,0.744606,
2005-12-16, 01:10:01,VALID,916.738,VALID,0,VALID,100,VALID,0.0339617,VALID,19.4329,VALID,25,VALID,0.770089,
2005-12-16, 01:11:01,VALID,916.718,VALID,0,VALID,100,VALID,0.0169808,VALID,19.456,VALID,3,VALID,0.553597,
2005-12-16, 01:12:00,VALID,916.717,VALID,0,VALID,100,VALID,0.0169808,VALID,19.4294,VALID,15,VALID,0.446039,
2005-12-16, 01:13:01,VALID,916.696,VALID,0,VALID,100,VALID,0.0509425,VALID,19.4463,VALID,18,VALID,0.532522,
2005-12-16, 01:14:01,VALID,916.677,VALID,0,VALID,100,VALID,0.0679233,VALID,19.4359,VALID,1,VALID,0.576219,
2005-12-16, 01:15:01,VALID,916.646,VALID,0,VALID,100,VALID,0.0509425,VALID,19.4232,VALID,2,VALID,0.873326,
2005-12-16, 01:16:01,VALID,916.642,VALID,0,VALID,100,VALID,0.0679233,VALID,19.4105,VALID,21,VALID,0.700639,
2005-12-16, 01:17:00,VALID,916.624,VALID,0,VALID,100,VALID,0.0169808,VALID,19.3909,VALID,7,VALID,0.412642,
2005-12-16, 01:18:01,VALID,916.627,VALID,0,VALID,100,VALID,0,VALID,19.4105,VALID,21,VALID,0.762718,
2005-12-16, 01:19:01,VALID,916.616,VALID,0,VALID,100,VALID,0.0169808,VALID,19.4172,VALID,358,VALID,0.759084,
2005-12-16, 01:20:01,VALID,916.603,VALID,0,VALID,100,VALID,0.0169808,VALID,19.3976,VALID,351,VALID,0.528832,
2005-12-16, 01:21:01,VALID,916.582,VALID,0,VALID,100,VALID,0,VALID,19.3916,VALID,351,VALID,0.311955,
2005-12-16, 01:22:01,VALID,916.554,VALID,0,VALID,100,VALID,0.0509425,VALID,19.3812,VALID,21,VALID,0.529102,
2005-12-16, 01:23:01,VALID,916.529,VALID,0,VALID,100,VALID,0.0509425,VALID,19.4075,VALID,17,VALID,0.819957,
2005-12-16, 01:24:01,VALID,916.513,VALID,0,VALID,100,VALID,0.0339617,VALID,19.4036,VALID,15,VALID,1.01635,
2005-12-16, 01:25:01,VALID,916.5,VALID,0,VALID,100,VALID,0.0509425,VALID,19.4237,VALID,16,VALID,0.414063,
2005-12-16, 01:26:01,VALID,916.485,VALID,0,VALID,100,VALID,0.0169808,VALID,19.417,VALID,97,VALID,0.380814,
2005-12-16, 01:27:01,VALID,916.475,VALID,0,VALID,100,VALID,0,VALID,19.4075,VALID,47,VALID,0.708854,
2005-12-16, 01:28:01,VALID,916.446,VALID,0,VALID,100,VALID,0.0679233,VALID,19.404,VALID,358,VALID,0.630996,
2005-12-16, 01:29:00,VALID,916.402,VALID,0,VALID,100,VALID,0.0339617,VALID,19.3906,VALID,70,VALID,0.792333,
2005-12-16, 01:30:01,VALID,916.411,VALID,0,VALID,100,VALID,0,VALID,19.3909,VALID,342,VALID,0.339666,
2005-12-16, 01:31:01,VALID,916.436,VALID,0,VALID,100,VALID,0.0509425,VALID,19.3884,VALID,67,VALID,0.386364,
2005-12-16, 01:32:01,VALID,916.434,VALID,0.2,VALID,100,VALID,0.0339617,VALID,19.3916,VALID,175,VALID,0.673018,
2005-12-16, 01:33:01,VALID,916.454,VALID,0,VALID,100,VALID,0.0509425,VALID,19.3685,VALID,314,VALID,1.05929,
2005-12-16, 01:34:01,VALID,916.48,VALID,0,VALID,100,VALID,0,VALID,19.3824,VALID,271,VALID,0.59811,
2005-12-16, 01:35:01,VALID,916.467,VALID,0,VALID,100,VALID,-0.0169808,VALID,19.3598,VALID,223,VALID,0.917535,
2005-12-16, 01:36:01,VALID,916.443,VALID,0.2,VALID,100,VALID,0,VALID,19.3471,VALID,197,VALID,0.438743,
2005-12-16, 01:37:01,VALID,916.426,VALID,0,VALID,100,VALID,-0.0169808,VALID,19.3498,VALID,146,VALID,0.830664,
2005-12-16, 01:38:01,VALID,916.418,VALID,0,VALID,100,VALID,0,VALID,19.2815,VALID,254,VALID,1.46023,
2005-12-16, 01:39:01,VALID,916.395,VALID,0,VALID,100,VALID,0,VALID,19.227,VALID,212,VALID,0.634993,
2005-12-16, 01:40:01,VALID,916.407,VALID,0,VALID,100,VALID,0,VALID,19.2305,VALID,89,VALID,0.600446,
2005-12-16, 01:41:01,VALID,916.413,VALID,0,VALID,100,VALID,0,VALID,19.2501,VALID,46,VALID,1.02707,
2005-12-16, 01:42:01,VALID,916.408,VALID,0,VALID,100,VALID,0,VALID,19.2499,VALID,44,VALID,0.393111,
2005-12-16, 01:43:01,VALID,916.402,VALID,0,VALID,100,VALID,0,VALID,19.2434,VALID,22,VALID,1.27244,
2005-12-16, 01:44:01,VALID,916.398,VALID,0,VALID,100,VALID,-0.0169808,VALID,19.2364,VALID,346,VALID,0.630335,
2005-12-16, 01:45:01,VALID,916.393,VALID,0,VALID,100,VALID,-0.0169808,VALID,19.2436,VALID,293,VALID,0.392188,
2005-12-16, 01:46:01,VALID,916.407,VALID,0,VALID,100,VALID,0,VALID,19.2205,VALID,113,VALID,0.654474,
2005-12-16, 01:47:01,VALID,916.387,VALID,0,VALID,100,VALID,0.0169808,VALID,19.2046,VALID,31,VALID,1.47191,
2005-12-16, 01:48:00,VALID,916.382,VALID,0,VALID,100,VALID,0.0169808,VALID,19.1854,VALID,359,VALID,0.905717,
2005-12-16, 01:49:00,VALID,916.396,VALID,0,VALID,100,VALID,-0.0509425,VALID,19.1626,VALID,246,VALID,0.320313,
2005-12-16, 01:50:00,VALID,916.356,VALID,0,VALID,100,VALID,-0.0169808,VALID,19.1501,VALID,360,VALID,1.02253,
2005-12-16, 01:51:00,VALID,916.339,VALID,0,VALID,100,VALID,0,VALID,19.1367,VALID,32,VALID,1.34889,
2005-12-16, 01:52:00,VALID,916.355,VALID,0,VALID,100,VALID,0,VALID,19.1141,VALID,23,VALID,1.26744,
2005-12-16, 01:53:00,VALID,916.344,VALID,0.2,VALID,100,VALID,-0.0509425,VALID,19.1014,VALID,324,VALID,0.805233,
2005-12-16, 01:54:00,VALID,916.333,VALID,0,VALID,100,VALID,0,VALID,19.0591,VALID,21,VALID,0.699219,
2005-12-16, 01:55:00,VALID,916.345,VALID,0,VALID,100,VALID,0,VALID,19.0726,VALID,43,VALID,0.763281,
2005-12-16, 01:56:00,VALID,916.337,VALID,0,VALID,100,VALID,-0.0339617,VALID,19.0654,VALID,97,VALID,0.197409,
2005-12-16, 01:57:00,VALID,916.316,VALID,0,VALID,100,VALID,-0.0169808,VALID,19.0432,VALID,251,VALID,1.68333,
2005-12-16, 01:58:00,VALID,916.319,VALID,0,VALID,100,VALID,-0.0169808,VALID,19.0559,VALID,18,VALID,1.76116,
2005-12-16, 01:59:00,VALID,916.317,VALID,0,VALID,100,VALID,-0.0339617,VALID,19.0726,VALID,13,VALID,1.05897,
2005-12-16, 02:00:00,VALID,916.34,VALID,0,VALID,100,VALID,0,VALID,19.0656,VALID,8,VALID,0.430273,
2005-12-16, 02:01:00,VALID,916.332,VALID,0,VALID,100,VALID,-0.0169808,VALID,19.0758,VALID,163,VALID,0.59811,
2005-12-16, 02:02:00,VALID,916.331,VALID,0,VALID,100,VALID,0,VALID,19.0492,VALID,8,VALID,0.93559,
2005-12-16, 02:03:00,VALID,916.272,VALID,0.2,VALID,100,VALID,0,VALID,19.0171,VALID,320,VALID,1.53906,
2005-12-16, 02:04:00,VALID,916.247,VALID,0,VALID,100,VALID,-0.0169808,VALID,19.004,VALID,9,VALID,1.57213,
2005-12-16, 02:05:00,VALID,916.258,VALID,0.2,VALID,100,VALID,-0.0169808,VALID,18.9846,VALID,26,VALID,0.701172,
2005-12-16, 02:06:00,VALID,916.279,VALID,0,VALID,100,VALID,-0.0339617,VALID,18.9913,VALID,104,VALID,0.434126,
2005-12-16, 02:07:00,VALID,916.269,VALID,0,VALID,100,VALID,-0.0169808,VALID,18.9913,VALID,134,VALID,0.153993,
2005-12-16, 02:08:00,VALID,916.25,VALID,0,VALID,100,VALID,0,VALID,18.9816,VALID,73,VALID,0.438802,
2005-12-16, 02:09:00,VALID,916.235,VALID,0,VALID,100,VALID,0,VALID,18.985,VALID,32,VALID,0.508956,
2005-12-16, 02:10:00,VALID,916.216,VALID,0,VALID,100,VALID,-0.0169808,VALID,18.9724,VALID,350,VALID,1.10703,
2005-12-16, 02:11:00,VALID,916.227,VALID,0,VALID,100,VALID,-0.0339617,VALID,18.9721,VALID,16,VALID,0.607851,
2005-12-16, 02:12:00,VALID,916.225,VALID,0,VALID,100,VALID,-0.0339617,VALID,18.9818,VALID,17,VALID,0.181212,
2005-12-16, 02:13:00,VALID,916.21,VALID,0,VALID,100,VALID,-0.0509425,VALID,18.9791,VALID,17,VALID,0.0238281,
2005-12-16, 02:14:00,VALID,916.187,VALID,0,VALID,100,VALID,-0.0169808,VALID,18.9885,VALID,56,VALID,0.27793,
2005-12-16, 02:15:00,VALID,916.108,VALID,0,VALID,100,VALID,0,VALID,18.9691,VALID,264,VALID,1.21893,
2005-12-16, 02:16:00,VALID,916.119,VALID,0.2,VALID,100,VALID,0,VALID,18.9592,VALID,16,VALID,1.82831,
2005-12-16, 02:17:00,VALID,916.156,VALID,0,VALID,100,VALID,-0.0339617,VALID,18.989,VALID,15,VALID,0.534598,
2005-12-16, 02:18:00,VALID,916.116,VALID,0,VALID,100,VALID,0,VALID,18.9783,VALID,52,VALID,0.559696,
2005-12-16, 02:19:00,VALID,916.132,VALID,0,VALID,100,VALID,0,VALID,18.9594,VALID,253,VALID,1.06213,
2005-12-16, 02:20:00,VALID,916.154,VALID,0,VALID,100,VALID,-0.0169808,VALID,18.9497,VALID,168,VALID,0.300442,
2005-12-16, 02:21:00,VALID,916.12,VALID,0,VALID,100,VALID,-0.0169808,VALID,18.9398,VALID,51,VALID,0.405401,
2005-12-16, 02:22:00,VALID,916.122,VALID,0,VALID,100,VALID,0,VALID,18.9428,VALID,28,VALID,0.445833,
2005-12-16, 02:23:00,VALID,916.099,VALID,0.2,VALID,100,VALID,0,VALID,18.9366,VALID,267,VALID,0.936756,
2005-12-16, 02:24:00,VALID,916.1,VALID,0,VALID,100,VALID,-0.0169808,VALID,18.94,VALID,9,VALID,1.12127,
2005-12-16, 02:25:00,VALID,916.11,VALID,0,VALID,100,VALID,0,VALID,18.9629,VALID,336,VALID,0.891183,
2005-12-16, 02:26:00,VALID,916.097,VALID,0,VALID,100,VALID,-0.0169808,VALID,18.9562,VALID,310,VALID,0.156059,
2005-12-16, 02:27:00,VALID,916.097,VALID,0,VALID,100,VALID,-0.0169808,VALID,18.9594,VALID,310,VALID,0.151215,
2005-12-16, 02:28:00,VALID,916.073,VALID,0,VALID,100,VALID,-0.0509425,VALID,18.943,VALID,8,VALID,0.617188,
2005-12-16, 02:29:00,VALID,916.077,VALID,0,VALID,100,VALID,-0.0169808,VALID,18.9629,VALID,23,VALID,0.81032,
2005-12-16, 02:30:00,VALID,916.063,VALID,0,VALID,100,VALID,-0.0339617,VALID,18.9686,VALID,24,VALID,1.03525,
2005-12-16, 02:31:00,VALID,916.065,VALID,0,VALID,100,VALID,0,VALID,18.9791,VALID,16,VALID,0.610137,
2005-12-16, 02:32:00,VALID,916.053,VALID,0,VALID,100,VALID,0.0169808,VALID,18.9721,VALID,14,VALID,0.475977,
2005-12-16, 02:33:00,VALID,916.047,VALID,0,VALID,100,VALID,0,VALID,18.9753,VALID,16,VALID,1.43438,
2005-12-16, 02:34:00,VALID,916.042,VALID,0,VALID,100,VALID,0.0169808,VALID,18.9585,VALID,4,VALID,0.799782,
2005-12-16, 02:35:00,VALID,916.014,VALID,0,VALID,100,VALID,0.0849042,VALID,18.9483,VALID,344,VALID,1.42894,
2005-12-16, 02:36:00,VALID,916.04,VALID,0,VALID,100,VALID,0.0679233,VALID,18.9421,VALID,325,VALID,0.413477,
2005-12-16, 02:37:00,VALID,916.022,VALID,0.2,VALID,100,VALID,0.0509425,VALID,18.9453,VALID,15,VALID,0.689174,
2005-12-16, 02:38:00,VALID,916.012,VALID,0,VALID,100,VALID,0.0849042,VALID,18.9587,VALID,19,VALID,0.545473,
2005-12-16, 02:39:00,VALID,915.986,VALID,0,VALID,100,VALID,0.0849042,VALID,18.9555,VALID,22,VALID,1.32972,
2005-12-16, 02:40:00,VALID,915.986,VALID,0.2,VALID,100,VALID,0.0849042,VALID,18.9453,VALID,21,VALID,1.13224,
2005-12-16, 02:41:00,VALID,915.969,VALID,0,VALID,100,VALID,0.101885,VALID,18.9451,VALID,22,VALID,0.737109,
2005-12-16, 02:42:00,VALID,915.974,VALID,0.2,VALID,100,VALID,0.0849042,VALID,18.9518,VALID,19,VALID,0.548209,
2005-12-16, 02:43:00,VALID,915.977,VALID,0,VALID,100,VALID,0.0339617,VALID,18.9458,VALID,26,VALID,0.337695,
2005-12-16, 02:44:00,VALID,915.975,VALID,0,VALID,100,VALID,0.0509425,VALID,18.9329,VALID,22,VALID,0.196403,
2005-12-16, 02:45:00,VALID,915.979,VALID,0,VALID,100,VALID,0.0679233,VALID,18.9197,VALID,309,VALID,0.436547,
2005-12-16, 02:46:00,VALID,915.973,VALID,0.2,VALID,100,VALID,0.0849042,VALID,18.9197,VALID,346,VALID,0.203303,
2005-12-16, 02:47:00,VALID,915.97,VALID,0,VALID,100,VALID,0.0849042,VALID,18.9068,VALID,226,VALID,0.521528,
2005-12-16, 02:48:00,VALID,915.961,VALID,0,VALID,100,VALID,0.0849042,VALID,18.9033,VALID,272,VALID,0.236852,
2005-12-16, 02:49:00,VALID,915.958,VALID,0,VALID,100,VALID,0.0509425,VALID,18.9132,VALID,284,VALID,0.219122,
2005-12-16, 02:50:00,VALID,915.93,VALID,0.2,VALID,100,VALID,0.101885,VALID,18.9324,VALID,353,VALID,0.394531,
2005-12-16, 02:51:00,VALID,915.899,VALID,0,VALID,100,VALID,0.101885,VALID,18.9361,VALID,22,VALID,1.57576,
2005-12-16, 02:52:00,VALID,915.913,VALID,0,VALID,100,VALID,0.0339617,VALID,18.9324,VALID,9,VALID,1.01262,
2005-12-16, 02:53:00,VALID,915.922,VALID,0,VALID,100,VALID,0.0679233,VALID,18.916,VALID,353,VALID,0.845465,
2005-12-16, 02:54:00,VALID,915.89,VALID,0,VALID,100,VALID,0.0679233,VALID,18.8934,VALID,6,VALID,0.781994,
2005-12-16, 02:55:00,VALID,915.913,VALID,0,VALID,100,VALID,0.0679233,VALID,18.91,VALID,18,VALID,1.00316,
2005-12-16, 02:56:00,VALID,915.925,VALID,0,VALID,100,VALID,0.0679233,VALID,18.9065,VALID,27,VALID,0.332386,
2005-12-16, 02:57:00,VALID,915.897,VALID,0,VALID,100,VALID,0.0509425,VALID,18.9038,VALID,23,VALID,1.46218,
2005-12-16, 02:58:00,VALID,915.859,VALID,0,VALID,100,VALID,0.0509425,VALID,18.9162,VALID,16,VALID,1.60975,
2005-12-16, 02:59:00,VALID,915.848,VALID,0,VALID,100,VALID,0.0509425,VALID,18.9068,VALID,10,VALID,0.847751,
2005-12-16, 03:00:00,VALID,915.837,VALID,0,VALID,100,VALID,0.0849042,VALID,18.9028,VALID,17,VALID,0.881424,
2005-12-16, 03:01:00,VALID,915.815,VALID,0,VALID,100,VALID,0.0679233,VALID,18.8834,VALID,359,VALID,1.30278,
2005-12-16, 03:02:00,VALID,915.824,VALID,0,VALID,100,VALID,0.0339617,VALID,18.871,VALID,359,VALID,1.16104,
2005-12-16, 03:03:00,VALID,915.811,VALID,0,VALID,100,VALID,0.0339617,VALID,18.8712,VALID,359,VALID,1.32903,
2005-12-16, 03:04:00,VALID,915.799,VALID,0,VALID,100,VALID,0.0509425,VALID,18.8809,VALID,16,VALID,1.13653,
2005-12-16, 03:05:00,VALID,915.802,VALID,0,VALID,100,VALID,0.0849042,VALID,18.8809,VALID,12,VALID,1.25799,
2005-12-16, 03:06:00,VALID,915.8,VALID,0,VALID,100,VALID,0.0169808,VALID,18.8774,VALID,9,VALID,0.907158,
2005-12-16, 03:07:00,VALID,915.785,VALID,0,VALID,100,VALID,0.0679233,VALID,18.8645,VALID,344,VALID,1.41715,
2005-12-16, 03:08:00,VALID,915.82,VALID,0,VALID,100,VALID,0.0849042,VALID,18.8615,VALID,349,VALID,0.69668,
2005-12-16, 03:09:00,VALID,915.816,VALID,0,VALID,100,VALID,0,VALID,18.8675,VALID,6,VALID,0.921875,
2005-12-16, 03:10:00,VALID,915.807,VALID,0,VALID,100,VALID,0.0339617,VALID,18.8553,VALID,7,VALID,1.34109,
2005-12-16, 03:11:00,VALID,915.809,VALID,0,VALID,100,VALID,0.0679233,VALID,18.8617,VALID,14,VALID,1.4652,
2005-12-16, 03:12:00,VALID,915.801,VALID,0,VALID,100,VALID,0.0169808,VALID,18.865,VALID,347,VALID,1.34337,
2005-12-16, 03:13:00,VALID,915.781,VALID,0,VALID,100,VALID,0.0679233,VALID,18.8583,VALID,346,VALID,1.27681,
2005-12-16, 03:14:00,VALID,915.781,VALID,0,VALID,100,VALID,0.0679233,VALID,18.8546,VALID,3,VALID,1.37979,
2005-12-16, 03:15:00,VALID,915.772,VALID,0,VALID,100,VALID,0.0509425,VALID,18.8622,VALID,353,VALID,1.16369,
2005-12-16, 03:16:00,VALID,915.771,VALID,0,VALID,100,VALID,0.0509425,VALID,18.8717,VALID,4,VALID,0.985677,
2005-12-16, 03:17:00,VALID,915.753,VALID,0,VALID,100,VALID,0.0509425,VALID,18.8613,VALID,357,VALID,1.31917,
2005-12-16, 03:18:00,VALID,915.724,VALID,0,VALID,100,VALID,0.0679233,VALID,18.8583,VALID,10,VALID,1.43605,
2005-12-16, 03:19:00,VALID,915.711,VALID,0,VALID,100,VALID,0.0849042,VALID,18.8518,VALID,6,VALID,1.57754,
2005-12-16, 03:20:00,VALID,915.729,VALID,0,VALID,100,VALID,0.0849042,VALID,18.8456,VALID,348,VALID,1.25305,
2005-12-16, 03:21:00,VALID,915.722,VALID,0,VALID,100,VALID,0.0339617,VALID,18.8255,VALID,346,VALID,1.28343,
2005-12-16, 03:22:00,VALID,915.717,VALID,0,VALID,100,VALID,0.0169808,VALID,18.82,VALID,352,VALID,1.11028,
2005-12-16, 03:23:00,VALID,915.711,VALID,0,VALID,100,VALID,0.0509425,VALID,18.8128,VALID,354,VALID,1.02023,
2005-12-16, 03:24:00,VALID,915.726,VALID,0,VALID,100,VALID,0.0849042,VALID,18.8197,VALID,13,VALID,1.06871,
2005-12-16, 03:25:00,VALID,915.708,VALID,0,VALID,100,VALID,0.0509425,VALID,18.8294,VALID,23,VALID,1.62295,
2005-12-16, 03:26:00,VALID,915.697,VALID,0,VALID,100,VALID,0.0509425,VALID,18.8327,VALID,14,VALID,1.68423,
2005-12-16, 03:27:00,VALID,915.707,VALID,0,VALID,100,VALID,0.0509425,VALID,18.816,VALID,10,VALID,1.41834,
2005-12-16, 03:28:00,VALID,915.708,VALID,0,VALID,100,VALID,0.0849042,VALID,18.8227,VALID,358,VALID,1.03735,
2005-12-16, 03:29:00,VALID,915.715,VALID,0,VALID,100,VALID,0.0849042,VALID,18.8227,VALID,356,VALID,1.20603,
2005-12-16, 03:30:00,VALID,915.708,VALID,0,VALID,100,VALID,0.0849042,VALID,18.8292,VALID,16,VALID,1.32496,
2005-12-16, 03:31:00,VALID,915.716,VALID,0,VALID,100,VALID,0.101885,VALID,18.8126,VALID,12,VALID,1.67805,
2005-12-16, 03:32:00,VALID,915.715,VALID,0,VALID,100,VALID,0.0849042,VALID,18.8195,VALID,13,VALID,1.07249,
2005-12-16, 03:33:00,VALID,915.695,VALID,0,VALID,100,VALID,0.0679233,VALID,18.8364,VALID,16,VALID,0.944196,
2005-12-16, 03:34:00,VALID,915.691,VALID,0,VALID,100,VALID,0.101885,VALID,18.8357,VALID,9,VALID,1.13523,
2005-12-16, 03:35:00,VALID,915.666,VALID,0,VALID,100,VALID,0.0679233,VALID,18.8424,VALID,359,VALID,1.0536,
2005-12-16, 03:36:00,VALID,915.663,VALID,0,VALID,100,VALID,0.0849042,VALID,18.823,VALID,9,VALID,1.13243,
2005-12-16, 03:37:00,VALID,915.672,VALID,0,VALID,100,VALID,0.0679233,VALID,18.8165,VALID,352,VALID,0.932118,
2005-12-16, 03:38:00,VALID,915.667,VALID,0,VALID,100,VALID,0.0509425,VALID,18.8262,VALID,332,VALID,0.824033,
2005-12-16, 03:39:00,VALID,915.665,VALID,0,VALID,100,VALID,0.0339617,VALID,18.8262,VALID,345,VALID,0.911882,
2005-12-16, 03:40:00,VALID,915.672,VALID,0,VALID,100,VALID,0.0849042,VALID,18.8262,VALID,16,VALID,0.964558,
2005-12-16, 03:41:00,VALID,915.667,VALID,0,VALID,100,VALID,0.0849042,VALID,18.8225,VALID,20,VALID,0.952947,
2005-12-16, 03:42:00,VALID,915.677,VALID,0,VALID,100,VALID,0.0849042,VALID,18.8426,VALID,14,VALID,0.985978,
2005-12-16, 03:43:00,VALID,915.693,VALID,0,VALID,100,VALID,0.0679233,VALID,18.8486,VALID,8,VALID,0.941051,